Terug naar catalogus

STARLINK-37712

ActiefCommunicatieSSO
NORAD 100109·PAYLOAD·🇺🇸 United States

Gelanceerd Jul 21, 2026 vanaf Vandenberg Space Force Base

Loading…

Volgende Passages (komende 24 uur)

TLE

VersSource: Space-Track

Epoch: Sep 14, 2026, 13:38 UTC

1 A0109U 26166J   26257.56866764  .00190858  00000-0  12531-2 0  9996
2 A0109  97.2823 275.6871 0000753 132.8707 227.2621 15.75171406  8672

Volg STARLINK-37712 in realtime met AllMySat

Download on the App Store